OE3EMC-13 Weather Reports


time (UTC)temp
C
wind
direction
speed
KPH
gust
KPH
rain 1hr
cm
rain 24hr
cm
rain mn
cm
humidity
%
barometer
mb
20260507155313 15 360 4.8 6.4 0.00 0.00 0.00 52 1100.0
20260507154313 15 360 4.8 6.4 0.00 0.00 0.00 52 1100.0
20260507153313 15 22 6.4 6.4 0.00 0.00 0.00 52 1100.0
20260507152313 15 22 6.4 6.4 0.00 0.00 0.00 52 1100.0
20260507151313 17 90 6.4 3.2 0.00 0.00 0.00 49 1100.0
20260507150313 17 90 6.4 3.2 0.00 0.00 0.00 49 1100.0
20260507145313 16 157 4.8 1.6 0.00 0.00 0.00 50 1100.0
20260507144312 16 157 4.8 1.6 0.00 0.00 0.00 50 1100.0
20260507143314 16 180 3.2 4.8 0.00 0.00 0.00 50 1100.0
20260507142314 16 180 3.2 4.8 0.00 0.00 0.00 50 1100.0
20260507141312 16 337 4.8 4.8 0.00 0.00 0.00 49 1100.0
20260507140312 16 337 4.8 4.8 0.00 0.00 0.00 49 1100.0
20260507135313 17 337 4.8 4.8 0.00 0.00 0.00 45 1100.0
20260507134311 17 337 4.8 4.8 0.00 0.00 0.00 45 1100.0
20260507133313 17 360 4.8 6.4 0.00 0.00 0.00 47 1100.0
20260507132311 17 360 4.8 6.4 0.00 0.00 0.00 47 1100.0
20260507131311 17 45 8.0 4.8 0.00 0.00 0.00 47 1100.0
20260507130311 17 45 8.0 4.8 0.00 0.00 0.00 47 1100.0
20260507125312 16 157 4.8 6.4 0.00 0.00 0.00 51 1100.0
20260507124312 16 157 4.8 6.4 0.00 0.00 0.00 51 1100.0
20260507123311 16 337 4.8 11.3 0.00 0.00 0.00 52 1100.0
20260507122310 16 337 4.8 11.3 0.00 0.00 0.00 52 1100.0
20260507121312 16 112 4.8 3.2 0.00 0.00 0.00 49 1100.0
20260507120310 16 112 4.8 3.2 0.00 0.00 0.00 49 1100.0
20260507115311 17 337 6.4 8.0 0.00 0.00 0.00 49 1100.0
20260507114310 17 337 6.4 8.0 0.00 0.00 0.00 49 1100.0
20260507113311 17 337 8.0 6.4 0.00 0.00 0.00 51 1100.0
20260507112311 17 337 8.0 6.4 0.00 0.00 0.00 51 1100.0
20260507111309 16 337 6.4 11.3 0.00 0.00 0.00 53 1100.0
20260507110309 16 337 6.4 11.3 0.00 0.00 0.00 53 1100.0
20260507105311 16 45 6.4 12.9 0.00 0.00 0.00 53 1100.0
20260507104316 16 45 6.4 12.9 0.00 0.00 0.00 53 1100.0
20260507103315 15 67 6.4 11.3 0.00 0.00 0.00 57 1100.0
20260507102315 15 67 6.4 11.3 0.00 0.00 0.00 57 1100.0
20260507101313 14 112 6.4 1.6 0.00 0.00 0.00 58 1100.0
20260507100313 14 112 6.4 1.6 0.00 0.00 0.00 58 1100.0
20260507095313 15 112 6.4 3.2 0.00 0.00 0.00 56 1100.0
20260507094314 15 112 6.4 3.2 0.00 0.00 0.00 56 1100.0
20260507093313 16 45 6.4 4.8 0.00 0.00 0.00 55 1100.0
20260507092313 16 45 6.4 4.8 0.00 0.00 0.00 55 1100.0
20260507091314 14 337 6.4 8.0 0.00 0.00 0.00 58 1100.0
20260507090314 14 337 6.4 8.0 0.00 0.00 0.00 58 1100.0
20260507085312 13 67 6.4 9.7 0.00 0.00 0.00 61 1100.0
20260507084312 13 67 6.4 9.7 0.00 0.00 0.00 61 1100.0
20260507083312 12 45 6.4 22.5 0.00 0.00 0.00 66 1100.0
20260507082313 12 45 6.4 22.5 0.00 0.00 0.00 66 1100.0
20260507081312 11 337 6.4 3.2 0.00 0.00 0.00 71 1100.0
20260507080312 11 337 6.4 3.2 0.00 0.00 0.00 71 1100.0
20260507075311 10 360 6.4 4.8 0.00 0.00 0.00 74 1100.0
20260507074311 10 360 6.4 4.8 0.00 0.00 0.00 74 1100.0
20260507073311 9 90 4.8 8.0 0.00 0.00 0.00 75 1100.0
20260507072312 9 90 4.8 8.0 0.00 0.00 0.00 75 1100.0
20260507071312 9 45 6.4 4.8 0.00 0.00 0.00 76 1100.0
20260507070311 9 45 6.4 4.8 0.00 0.00 0.00 76 1100.0
20260507065311 8 112 4.8 1.6 0.00 0.00 0.00 79 1100.0
20260507064310 8 112 4.8 1.6 0.00 0.00 0.00 79 1100.0
20260507063312 8 90 6.4 8.0 0.00 0.00 0.00 81 1100.0
20260507062310 8 90 6.4 8.0 0.00 0.00 0.00 81 1100.0
20260507061310 7 22 4.8 12.9 0.00 0.00 0.00 81 1100.0
20260507060310 7 22 4.8 12.9 0.00 0.00 0.00 81 1100.0
20260507055310 8 90 6.4 4.8 0.00 0.00 0.00 82 1100.0
20260507054311 8 90 6.4 4.8 0.00 0.00 0.00 82 1100.0
20260507053309 7 90 6.4 20.9 0.00 0.00 0.00 83 1100.0
20260507052309 7 90 6.4 20.9 0.00 0.00 0.00 83 1100.0
20260507051311 7 45 4.8 11.3 0.00 0.00 0.00 84 1100.0
20260507050314 7 45 4.8 11.3 0.00 0.00 0.00 84 1100.0
20260507045315 7 337 6.4 9.7 0.00 0.00 0.00 84 1100.0
20260507044314 7 337 6.4 9.7 0.00 0.00 0.00 84 1100.0
20260507043315 7 135 4.8 6.4 0.00 0.00 0.00 85 1100.0
20260507042314 7 135 4.8 6.4 0.00 0.00 0.00 85 1100.0
20260507041313 7 360 4.8 9.7 0.00 0.00 0.00 86 1100.0
20260507040313 7 360 4.8 9.7 0.00 0.00 0.00 86 1100.0
20260507035313 7 135 4.8 4.8 0.00 0.00 0.00 86 1100.0
20260507034313 7 135 4.8 4.8 0.00 0.00 0.00 86 1100.0
20260507033313 7 247 6.4 4.8 0.00 0.00 0.00 86 1100.0
20260507032313 7 247 6.4 4.8 0.00 0.00 0.00 86 1100.0
20260507031312 7 22 6.4 6.4 0.00 0.00 0.00 85 1100.0
20260507030312 7 22 6.4 6.4 0.00 0.00 0.00 85 1100.0
20260507025312 7 337 9.7 20.9 0.00 0.00 0.00 85 1100.0
20260507024314 7 337 9.7 20.9 0.00 0.00 0.00 85 1100.0
20260507023312 8 337 8.0 11.3 0.00 0.00 0.00 85 1100.0
20260507022313 8 337 8.0 11.3 0.00 0.00 0.00 85 1100.0
20260507021313 8 45 8.0 6.4 0.00 0.00 0.00 85 1100.0
20260507020313 8 45 8.0 6.4 0.00 0.00 0.00 85 1100.0
20260507015311 8 360 8.0 11.3 0.00 0.00 0.00 85 1100.0
20260507014311 8 360 8.0 11.3 0.00 0.00 0.00 85 1100.0
20260507013312 8 360 8.0 11.3 0.00 0.00 0.00 85 1100.0
20260507012312 8 360 8.0 11.3 0.00 0.00 0.00 85 1100.0
20260507011311 8 337 8.0 11.3 0.00 0.00 0.00 85 1100.0
20260507010312 8 337 8.0 11.3 0.00 0.00 0.00 85 1100.0
20260507005311 8 337 8.0 20.9 0.00 0.00 0.00 85 1100.0
20260507004310 8 337 8.0 20.9 0.00 0.00 0.00 85 1100.0
20260507003311 9 292 8.0 9.7 0.00 0.00 0.00 85 1100.0
20260507002310 9 292 8.0 9.7 0.00 0.00 0.00 85 1100.0
20260507001310 9 292 8.0 16.1 0.00 0.00 0.00 85 1100.0
20260507000310 9 292 8.0 16.1 0.00 0.00 0.00 85 1100.0
20260506235310 9 337 6.4 8.0 0.00 0.00 0.00 85 1100.0
20260506234310 9 337 6.4 8.0 0.00 0.00 0.00 85 1100.0
20260506233309 9 360 6.4 17.7 0.00 0.00 0.00 84 1100.0
20260506232314 9 360 6.4 17.7 0.00 0.00 0.00 84 1100.0
20260506231314 10 360 4.8 9.7 0.00 0.00 0.00 83 1100.0
20260506230316 10 360 4.8 9.7 0.00 0.00 0.00 83 1100.0
20260506225315 10 360 4.8 14.5 0.00 0.00 0.00 84 1100.0
20260506224314 10 360 4.8 14.5 0.00 0.00 0.00 84 1100.0
20260506223313 10 315 4.8 12.9 0.00 0.00 0.00 84 1100.0
20260506222313 10 315 4.8 12.9 0.00 0.00 0.00 84 1100.0
20260506221314 10 315 8.0 9.7 0.00 0.00 0.00 84 1100.0
20260506220314 10 315 8.0 9.7 0.00 0.00 0.00 84 1100.0
20260506215313 10 67 6.4 4.8 0.00 0.00 0.00 82 1100.0
20260506214314 10 67 6.4 4.8 0.00 0.00 0.00 82 1100.0
20260506213313 10 45 3.2 6.4 0.00 0.00 0.00 80 1100.0
20260506212312 10 45 3.2 6.4 0.00 0.00 0.00 80 1100.0
20260506211314 10 315 1.6 3.2 0.00 0.00 0.00 80 1100.0
20260506210312 10 315 1.6 3.2 0.00 0.00 0.00 80 1100.0
20260506205312 11 360 1.6 3.2 0.00 0.00 0.00 78 1100.0
20260506204312 11 360 1.6 3.2 0.00 0.00 0.00 78 1100.0
20260506203312 11 360 3.2 4.8 0.00 0.00 0.00 76 1100.0
20260506202312 11 360 3.2 4.8 0.00 0.00 0.00 76 1100.0
20260506201311 12 45 4.8 9.7 0.00 0.00 0.00 71 1100.0
20260506200313 12 45 4.8 9.7 0.00 0.00 0.00 71 1100.0
20260506195312 13 22 4.8 3.2 0.00 0.00 0.00 69 1100.0
20260506194312 13 22 4.8 3.2 0.00 0.00 0.00 69 1100.0
20260506193313 14 67 8.0 6.4 0.00 0.00 0.00 64 1100.0
20260506192311 14 67 8.0 6.4 0.00 0.00 0.00 64 1100.0
20260506191312 15 292 4.8 4.8 0.00 0.00 0.00 52 1100.0
20260506190312 15 292 4.8 4.8 0.00 0.00 0.00 52 1100.0
20260506185310 16 360 9.7 11.3 0.00 0.00 0.00 51 1100.0
20260506184310 16 360 9.7 11.3 0.00 0.00 0.00 51 1100.0
20260506183310 16 292 6.4 8.0 0.00 0.00 0.00 51 1100.0
20260506182310 16 292 6.4 8.0 0.00 0.00 0.00 51 1100.0
20260506181310 17 360 4.8 4.8 0.00 0.00 0.00 49 1100.0
20260506180310 17 360 4.8 4.8 0.00 0.00 0.00 49 1100.0
20260506175309 18 67 3.2 0.0 0.00 0.00 0.00 46 1100.0
20260506174315 18 67 3.2 0.0 0.00 0.00 0.00 46 1100.0
20260506173315 19 337 6.4 6.4 0.00 0.00 0.00 43 1100.0
20260506172314 19 337 6.4 6.4 0.00 0.00 0.00 43 1100.0
20260506171315 20 360 3.2 3.2 0.00 0.00 0.00 41 1100.0
20260506170314 20 360 3.2 3.2 0.00 0.00 0.00 41 1100.0
20260506165313 21 337 6.4 9.7 0.00 0.00 0.00 40 1100.0
20260506164313 21 337 6.4 9.7 0.00 0.00 0.00 40 1100.0
20260506163313 22 360 4.8 11.3 0.00 0.00 0.00 39 1100.0
20260506162313 22 360 4.8 11.3 0.00 0.00 0.00 39 1100.0
20260506161314 21 292 3.2 3.2 0.00 0.00 0.00 42 1100.0
20260506160313 21 292 3.2 3.2 0.00 0.00 0.00 42 1100.0